Oakland, CA

9:25 AM PDT on October 23, 2019 (GMT -0700)
Metro Oakland International

Weather History for KOAK - August, 2019

Change the Weather History Date:

Thursday, August 8, 2019

  Actual Average Record
Temperature  
Mean Temperature 66 °F 63 °F  
Max Temperature 72 °F 71 °F 88 °F (2002)
Min Temperature 60 °F 56 °F 51 °F (2011)
Degree Days  
Heating Degree Days 0 2  
Month to date heating degree days 0 17  
Since 1 June heating degree days 47 203  
Since 1 July heating degree days 15 100  
Cooling Degree Days 1 0  
Month to date cooling degree days 17 0  
Year to date cooling degree days 143 52  
Since 1 June cooling degree days 134 36  
Growing Degree Days 16 (Base 50)    
Moisture  
Dew Point 55 °F    
Average Humidity 71    
Maximum Humidity 84    
Minimum Humidity 57    
Precipitation  
Precipitation 0.00 in 0.01 in 0.01 in (1963)
Month to date precipitation 0.00 0.01  
Year to date precipitation 15.71 13.24  
Sea Level Pressure  
Sea Level Pressure 29.99 in    
Wind  
Wind Speed 15 mph (West)    
Max Wind Speed 25 mph    
Max Gust Speed 29 mph    
Visibility 10 miles    
Events      
T = Trace of Precipitation, MM = Missing Value Source: NWS Daily Summary

Daily Weather History Graph

Daily Weather History Graph

Search for Another Location

Airport or City:

Astronomy

Aug. 08, 2019 Rise Set
Actual Time 6:18 AM PDT 8:10 PM PDT
Civil Twilight 5:49 AM PDT 8:38 PM PDT
Nautical Twilight 5:15 AM PDT 9:12 PM PDT
Astronomical Twilight 4:38 AM PDT 9:49 PM PDT
Moon 2:51 PM PDT (8/8) 12:42 AM PDT (8/8)
Length of Visible Light 14h 48m
Length of Day
13h 51m
First Quarter, 61% of the Moon is Illuminated
Aug 8
First Quarter
Aug 15
Full
Aug 23
Last Quarter
Aug 30
New
Sep 5
First Quarter

Hourly Weather History & Observations

Time (PDT) Temp. Dew Point Humidity Pressure Visibility Wind Dir Wind Speed Gust Speed Precip Events Conditions
12:53 AM 62.1 °F 55.0 °F 78% 29.96 in 10.0 mi WSW 10.4 mph - N/A   Overcast
1:53 AM 61.0 °F 55.0 °F 81% 29.96 in 10.0 mi WSW 9.2 mph - N/A   Overcast
2:53 AM 61.0 °F 55.0 °F 81% 29.96 in 10.0 mi West 15.0 mph - N/A   Mostly Cloudy
3:53 AM 61.0 °F 55.0 °F 81% 29.96 in 10.0 mi West 13.8 mph - N/A   Mostly Cloudy
4:53 AM 60.1 °F 55.0 °F 83% 29.96 in 10.0 mi West 12.7 mph - N/A   Overcast
5:53 AM 60.1 °F 55.0 °F 83% 29.97 in 10.0 mi West 16.1 mph - N/A   Overcast
6:28 AM 61.0 °F 55.0 °F 81% 29.98 in 10.0 mi West 10.4 mph - N/A   Overcast
6:53 AM 60.1 °F 54.0 °F 80% 29.99 in 10.0 mi WSW 15.0 mph - N/A   Overcast
7:38 AM 60.1 °F 54.0 °F 80% 30.00 in 10.0 mi West 15.0 mph - N/A   Overcast
7:53 AM 60.1 °F 54.0 °F 80% 30.00 in 10.0 mi West 11.5 mph - N/A   Overcast
8:53 AM 63.0 °F 55.0 °F 75% 30.02 in 10.0 mi WSW 12.7 mph - N/A   Overcast
9:10 AM 63.0 °F 54.0 °F 72% 30.02 in 10.0 mi WSW 15.0 mph - N/A   Overcast
9:53 AM 64.0 °F 55.0 °F 73% 30.02 in 10.0 mi SW 10.4 mph - N/A   Mostly Cloudy
10:53 AM 66.0 °F 55.0 °F 68% 30.02 in 10.0 mi WSW 13.8 mph - N/A   Mostly Cloudy
11:53 AM 66.9 °F 55.0 °F 66% 30.02 in 10.0 mi West 11.5 mph - N/A   Mostly Cloudy
12:29 PM 70.0 °F 55.0 °F 59% 30.01 in 10.0 mi West 16.1 mph - N/A   Scattered Clouds
12:53 PM 70.0 °F 55.0 °F 59% 30.01 in 10.0 mi West 16.1 mph - N/A   Scattered Clouds
1:53 PM 70.0 °F 55.0 °F 59% 30.01 in 10.0 mi West 19.6 mph - N/A   Scattered Clouds
2:53 PM 71.1 °F 55.9 °F 59% 30.00 in 10.0 mi West 20.7 mph - N/A   Partly Cloudy
3:53 PM 71.1 °F 55.0 °F 57% 29.99 in 10.0 mi West 24.2 mph - N/A   Partly Cloudy
4:53 PM 72.0 °F 55.9 °F 57% 29.98 in 10.0 mi West 20.7 mph - N/A   Scattered Clouds
5:53 PM 69.1 °F 54.0 °F 58% 29.98 in 10.0 mi West 21.9 mph - N/A   Scattered Clouds
6:53 PM 66.9 °F 55.0 °F 66% 29.96 in 10.0 mi West 24.2 mph - N/A   Mostly Cloudy
7:53 PM 64.9 °F 55.9 °F 73% 29.98 in 10.0 mi West 19.6 mph - N/A   Mostly Cloudy
8:53 PM 64.0 °F 55.9 °F 75% 29.98 in 10.0 mi West 13.8 mph - N/A   Mostly Cloudy
9:53 PM 64.0 °F 55.0 °F 73% 29.99 in 10.0 mi West 12.7 mph - N/A   Mostly Cloudy
10:53 PM 63.0 °F 54.0 °F 72% 29.99 in 10.0 mi WNW 11.5 mph - N/A   Mostly Cloudy
11:53 PM 62.1 °F 55.0 °F 78% 29.97 in 10.0 mi West 12.7 mph - N/A   Mostly Cloudy